Location: Mesa
(33.4220°N, 111.8220°W)
Time: 20:05:33
(UTC-07:00)

Hubble Space Telescope - Pass Details

Date: 24 November 2019
Orbit: 536 x 540 km, 28.5° (Epoch: 05 December)

Event Time Altitude Azimuth Distance (km) Brightness Sun altitude
Rises 19:46:39 0° 265° (W) 2,670 5.5 -30.1°
Reaches altitude 10° 19:49:07 10° 253° (WSW) 1,779 4.3 -30.6°
Enters shadow 19:50:58 21° 233° (SW) 1,234 3.1 -31.0°
